Regional Weather Roundup
Issued by NWS

Home | Current Version | Previous Version | Text Only | Print | Product List | Glossary Off
Versions: 1 2 3 4 5 6 7 8 9 10 11 12 13 14 15 16 17 18 19 20 21 22 23 24 25 26 27 28 29 30 31 32 33 34 35 36 37 38 39 40 41 42 43 44 45 46 47 48 49 50

000
ASUS43 KLMK 310302
RWRKY
KENTUCKY REGIONAL WEATHER ROUNDUP
NATIONAL WEATHER SERVICE LOUISVILLE KY
1100 PM EDT SAT AUG 30 2014

NOTE "FAIR" INDICATES FEW OR NO CLOUDS BELOW 12,000 FEET
WITH NO SIGNIFICANT WEATHER AND/OR OBSTRUCTIONS TO VISIBILITY.

KYZ001>023-026-027-061>063-070>075-310400-
WESTERN AND SOUTH CENTRAL KENTUCKY

CITY           SKY/WX    TMP DP  RH WIND       PRES   REMARKS
PADUCAH        CLOUDY    75  72  90 S7        30.00R
HENDERSON      CLOUDY    72  68  88 S5        30.03R
OWENSBORO      NOT AVBL
HOPKINSVILLE   CLOUDY    75  75 100 SE8       30.05S
BOWLING GREEN  LGT RAIN  73  71  93 S7        30.08S
GLASGOW        RAIN      71  71 100 CALM      30.09F
$$

KYZ024-025-028>034-038-045-046-053-310400-
NORTH CENTRAL KENTUCKY

CITY           SKY/WX    TMP DP  RH WIND       PRES   REMARKS
LOUISVILLE/SDF LGT RAIN  74  70  87 CALM      30.04S
LOUISVILLE/LOU LGT RAIN  73  71  93 CALM      30.06R FOG
FORT KNOX      CLOUDY    72  72 100 S12       30.05R
$$

KYZ035>037-039>044-047>052-055>060-089>105-310400-
NORTHEAST KENTUCKY

CITY           SKY/WX    TMP DP  RH WIND       PRES   REMARKS
LEXINGTON      LGT RAIN  74  70  87 SE6       30.09R
COVINGTON      CLOUDY    72  68  87 S6        30.05F
FRANKFORT      CLOUDY    72  71  97 SE5       30.06F
$$

KYZ054-064>069-076>088-106>120-310400-
SOUTHEAST KENTUCKY

CITY           SKY/WX    TMP DP  RH WIND       PRES   REMARKS
JACKSON        LGT RAIN  75  69  81 CALM      30.12R
LONDON         RAIN      73  69  87 SW6       30.17R FOG
SOMERSET       HVY RAIN  72  72 100 S6        30.15R
MIDDLESBORO    CLOUDY    70  69  96 SE5       30.16F
MONTICELLO     FOG       73  70  91 S8        30.14R VSB 3/4
$$




USA.gov is the U.S. government's official web portal to all federal, state and local government web resources and services.